Flag for Norway Weather past 2 weeks in Eidsvoll, Norway

Now
54 °F

Clear.


Feels Like: 54 °F
Forecast: 45 / 59 °F
Wind: 2 mph from North

Location: Oslo Gardermoen Airport

Current Time: Aug 30, 2015 at 3:50:50 AM

Latest Report: Aug 30, 2015 at 3:20 AM


Visibility: 10 mi

Pressure: 30.01 "Hg

Humidity: 94%

Dew point: 52 °F

Location of EidsvollLocation

Historic Weather in Eidsvoll — Graph

°F

Eidsvoll temperature yesterday

Maximum temperature yesterday: 66 °F (at 12:50 PM)
Minimum temperature yesterday: 48 °F (at 6:20 AM)
Average temperature yesterday: 58 °F

Past Weeks' High & Low Weather Summary

 TemperatureHumidityPressure
High75 °F (Aug 23, 3:50 PM)100% (Aug 26, 7:50 PM)30.36 "Hg (Aug 26, 7:50 PM)
Low43 °F (Aug 22, 5:50 AM)31% (Aug 19, 4:20 PM)29.47 "Hg (Aug 27, 5:50 PM)
Average60 °F68%30.05 "Hg
* Reported Aug 15 2:20 AM — Aug 30 2:50 AM, Eidsvoll, Weather by CustomWeather, © 2015

Note: Actual official high and low records may vary slightly from our data, if they occured in-between our weather recording intervals... More about our weather records

Advertising

Eidsvoll weather history for previous 24 hours

 ConditionsComfort  
Time TempWeatherWind HumidityBarometerVisibility
2:50 AM
Sun, Aug 30
54 °FClear.5 mph94%30.01 "Hg10 mi
2:20 AM54 °FClear.No wind88%29.98 "Hg10 mi
1:50 AM54 °FPartly cloudy.1 mph94%29.98 "HgN/A
1:20 AM55 °FPassing clouds.3 mph88%29.98 "HgN/A
12:50 AM54 °FPassing clouds.No wind88%29.98 "HgN/A
12:20 AM55 °FClear.2 mph88%30.01 "Hg10 mi
11:50 PM
Sat, Aug 29
54 °FPassing clouds.7 mph94%29.98 "HgN/A
11:20 PM55 °FPassing clouds.2 mph88%29.98 "HgN/A
10:50 PM55 °FClear.7 mph88%29.98 "Hg10 mi
10:20 PM55 °FClear.9 mph88%29.98 "Hg10 mi
9:50 PM57 °FClear.14 mph82%29.98 "Hg10 mi
9:20 PM57 °FSunny.15 mph77%29.98 "Hg10 mi
8:50 PM57 °FSunny.14 mph77%29.98 "Hg10 mi
8:20 PM59 °FSunny.12 mph68%29.98 "Hg10 mi
7:50 PM61 °FSunny.14 mph68%29.98 "Hg10 mi
7:20 PM63 °FPassing clouds.15 mph64%29.98 "HgN/A
6:50 PM64 °FPassing clouds.10 mph52%29.98 "HgN/A
6:20 PM64 °FSunny.15 mph49%29.98 "Hg10 mi
5:50 PM66 °FPassing clouds.13 mph46%29.98 "HgN/A
5:20 PM66 °FPassing clouds.15 mph43%29.98 "HgN/A
4:50 PM64 °FPassing clouds.12 mph49%29.98 "HgN/A
4:20 PM66 °FPassing clouds.12 mph46%29.98 "HgN/A
3:50 PM66 °FPassing clouds.13 mph46%29.98 "HgN/A
3:20 PM64 °FPassing clouds.15 mph46%29.98 "HgN/A
2:50 PM63 °FSprinkles. Scattered clouds.14 mph52%29.98 "HgN/A
2:20 PM64 °FPassing clouds.8 mph43%29.98 "HgN/A
1:50 PM64 °FSunny.12 mph46%29.98 "Hg10 mi
1:20 PM64 °FPassing clouds.12 mph46%29.98 "HgN/A
12:50 PM66 °FSunny.10 mph40%29.98 "Hg10 mi
11:50 AM64 °FPassing clouds.7 mph49%29.95 "HgN/A
11:20 AM63 °FPassing clouds.9 mph49%29.98 "HgN/A
10:50 AM63 °FSunny.12 mph52%29.95 "Hg10 mi
10:20 AM61 °FPassing clouds.10 mph55%29.95 "HgN/A
9:50 AM59 °FPassing clouds.9 mph59%29.95 "HgN/A
9:20 AM57 °FSunny.9 mph63%29.92 "Hg10 mi
8:50 AM55 °FSunny.9 mph72%29.92 "Hg10 mi
7:50 AM52 °FSunny.6 mph77%29.89 "Hg10 mi
7:20 AM50 °FSunny.6 mph82%29.89 "Hg10 mi
6:50 AM50 °FClear.8 mph76%29.89 "Hg10 mi
6:20 AM48 °FClear.8 mph82%29.86 "Hg10 mi
5:50 AM50 °FPassing clouds.5 mph76%29.86 "HgN/A
4:50 AM50 °FClear.3 mph76%29.83 "Hg10 mi
4:20 AM52 °FPassing clouds.5 mph72%29.83 "HgN/A
3:50 AM50 °FPassing clouds.3 mph76%29.83 "HgN/A
3:20 AM52 °FPassing clouds.3 mph72%29.83 "HgN/A
Weather by CustomWeather, © 2015

See weather overviewHow to use our weather pages